Stations météo

réclame
Mon MeteoGroup
Sete, France (7641): Température de l'air & dewpoint: 08.08.2018 23:00:00 - 14.08.2018 23:00:00 (CEST)Sete, France (7641): Vitesse du vent & gusts: 08.08.2018 23:00:00 - 14.08.2018 23:00:00 (CEST)Sete, France (7641): Direction du vent: 08.08.2018 23:00:00 - 14.08.2018 23:00:00 (CEST)Sete, France (7641): reduced air pressure: 08.08.2018 23:00:00 - 14.08.2018 23:00:00 (CEST)Sete, France (7641): visibility: 08.08.2018 23:00:00 - 14.08.2018 23:00:00 (CEST)Sete, France (7641): Quantités de précipitations: 08.08.2018 23:00:00 - 14.08.2018 23:00:00 (CEST)
Date & Time tt [°C] td [°C] ff [km/h] ff [knt] fx [km/h] fx [knt] dd ppp [hPa] vv [km] rr [mm]
14.08.2018 23:00:00 24,2 13,1 14 8 44 24 NNW 1017,3 - 0,0
14.08.2018 22:00:00 24,8 13,0 11 6 44 24 NW 1017,0 - 0,0
14.08.2018 21:00:00 25,7 12,5 21 11 51 28 NW 1016,4 - 0,0
14.08.2018 20:00:00 26,5 12,5 19 11 48 26 NNW 1015,3 20 0,0
14.08.2018 19:00:00 27,3 12,9 19 10 49 26 NW 1014,7 - 0,0
14.08.2018 18:00:00 28,6 12,5 19 10 51 28 NW 1014,7 - 0,0
14.08.2018 17:00:00 29,0 12,0 22 12 51 28 NW 1014,4 25 0,0
14.08.2018 16:00:00 28,9 11,5 19 11 51 28 NW 1014,5 - 0,0
14.08.2018 15:00:00 28,5 11,1 18 10 53 28 NW 1014,9 - 0,0
14.08.2018 14:00:00 27,9 11,4 13 7 42 23 NW 1015,4 - 0,0
14.08.2018 13:00:00 27,2 10,0 18 10 44 24 NW 1015,7 - 0,0
14.08.2018 12:00:00 25,8 11,2 17 9 44 24 NW 1016,4 - 0,0
14.08.2018 11:00:00 24,6 13,5 17 9 46 25 WNW 1016,6 35 0,0
14.08.2018 10:00:00 23,8 13,3 15 8 45 24 NW 1016,6 - 0,0
14.08.2018 09:00:00 23,1 13,3 18 10 34 18 NW 1016,5 - 0,0
14.08.2018 08:00:00 22,4 13,7 10 5 31 17 WNW 1016,3 - 0,0
14.08.2018 07:00:00 21,2 14,1 16 9 34 18 NW 1016,0 - 0,0
14.08.2018 06:00:00 21,2 14,6 11 6 36 20 NW 1015,5 - 0,0
14.08.2018 05:00:00 21,4 15,2 12 7 34 18 NW 1015,3 20 0,0
14.08.2018 04:00:00 21,7 15,8 5 3 24 13 NW 1015,1 - 0,0
14.08.2018 03:00:00 22,5 15,6 8 4 26 14 NW 1014,8 - 0,0
14.08.2018 02:00:00 23,2 15,8 9 5 31 17 NW 1015,1 - 0,0
14.08.2018 01:00:00 23,4 16,0 11 6 27 15 NW 1015,3 - 0,0
14.08.2018 00:00:00 23,5 16,0 9 5 21 11 WNW 1014,8 - 0,0
13.08.2018 23:00:00 24,1 16,4 8 4 31 17 WNW 1014,3 - 0,0
13.08.2018 22:00:00 24,9 16,3 12 6 31 17 NW 1013,7 - 0,0
13.08.2018 21:00:00 25,2 16,6 15 8 31 17 NW 1013,2 - 0,0
13.08.2018 20:00:00 24,9 21,0 12 6 29 16 SW 1012,4 15 0,0
13.08.2018 19:00:00 25,5 19,6 16 9 25 14 SSW 1011,7 - 0,0
13.08.2018 18:00:00 26,7 19,6 9 5 15 8 S 1012,1 - 0,0
13.08.2018 17:00:00 26,6 19,7 10 6 21 12 SSE 1012,0 15 0,0
13.08.2018 16:00:00 27,4 20,0 13 7 21 11 S 1012,6 - 0,0
13.08.2018 15:00:00 27,6 19,4 12 6 20 11 SSE 1013,2 - 0,0
13.08.2018 14:00:00 26,9 19,5 9 5 17 9 SSE 1013,7 15 0,0
13.08.2018 13:00:00 24,8 18,7 9 5 18 10 ESE 1014,1 - 0,0
13.08.2018 12:00:00 25,1 18,8 10 5 21 11 E 1014,4 - 0,0
13.08.2018 11:00:00 26,1 18,0 7 4 18 10 N 1014,1 - 0,0
13.08.2018 10:00:00 24,7 17,7 6 3 18 10 NNE 1013,6 - 0,0
13.08.2018 09:00:00 22,1 18,1 15 8 24 13 N 1013,7 - 0,0
13.08.2018 08:00:00 21,2 18,2 6 3 - - N 1013,1 - -
13.08.2018 07:00:00 20,1 18,0 9 5 17 9 NE 1012,8 - 0,0
13.08.2018 06:00:00 20,5 18,1 9 5 30 16 W 1012,7 - 0,0
13.08.2018 05:00:00 21,3 17,7 14 8 35 19 W 1012,6 - 0,0
13.08.2018 04:00:00 20,9 17,5 24 13 32 18 NNW 1013,9 - 0,0
13.08.2018 03:00:00 20,1 18,0 10 5 36 19 WNW 1014,0 - 0,0
13.08.2018 02:00:00 20,2 18,0 22 12 41 22 NE 1012,8 - 0,0
13.08.2018 01:00:00 19,6 17,6 32 17 50 27 N 1012,5 - 0,0
13.08.2018 00:00:00 20,6 19,4 26 14 49 26 NNW 1013,8 - 7,9
12.08.2018 23:00:00 24,8 23,4 12 7 - - SE 1014,1 - 0,0
12.08.2018 22:00:00 24,8 23,2 14 8 27 15 ESE 1014,1 - 0,0
12.08.2018 21:00:00 25,3 23,4 11 6 28 15 SSE 1014,5 - 0,0
12.08.2018 20:00:00 25,3 23,2 12 7 27 15 SE 1013,6 - 0,0
12.08.2018 19:00:00 25,8 22,9 7 4 17 9 SE 1014,0 - 0,0
12.08.2018 18:00:00 26,5 22,1 9 5 21 11 SE 1014,2 - 0,0
12.08.2018 17:00:00 27,5 21,1 12 6 24 13 SSE 1014,8 - 0,0
12.08.2018 16:00:00 26,3 20,8 13 7 33 18 ESE 1015,3 - 0,0
12.08.2018 15:00:00 28,1 19,1 11 6 23 12 E 1015,8 - 0,0
12.08.2018 14:00:00 28,2 16,5 10 5 19 11 E 1016,5 18 0,0
12.08.2018 13:00:00 27,8 14,4 10 5 23 12 E 1017,1 - 0,0
12.08.2018 12:00:00 26,5 14,6 11 6 27 15 E 1017,3 - 0,0
12.08.2018 11:00:00 25,7 13,9 10 6 27 15 E 1017,3 18 0,0
12.08.2018 10:00:00 24,5 11,8 15 8 34 18 NE 1017,1 - 0,0
12.08.2018 09:00:00 23,3 12,0 21 11 32 17 NE 1017,1 - 0,0
12.08.2018 08:00:00 21,9 11,9 16 9 27 15 NNE 1017,2 20 0,0
12.08.2018 07:00:00 21,8 10,9 16 9 26 14 NNE 1016,9 - 0,0
12.08.2018 06:00:00 22,5 10,6 18 10 31 17 NNE 1016,7 - 0,0
12.08.2018 05:00:00 22,9 10,0 18 10 29 16 NNE 1017,0 20 0,0
12.08.2018 04:00:00 23,3 9,7 17 9 29 16 NNE 1017,5 - 0,0
12.08.2018 03:00:00 23,5 11,2 19 10 31 17 NNE 1017,5 - 0,0
12.08.2018 02:00:00 23,1 17,1 13 7 21 12 NNE 1018,0 - 0,0
12.08.2018 01:00:00 23,3 17,3 13 7 22 12 NNE 1018,5 - 0,0
12.08.2018 00:00:00 23,5 18,8 5 3 11 6 E 1018,7 - 0,0
11.08.2018 23:00:00 23,8 18,4 6 3 17 9 S 1018,8 - 0,0
11.08.2018 22:00:00 24,2 18,6 8 4 21 12 SSW 1018,8 - 0,0
11.08.2018 21:00:00 24,4 18,1 14 8 22 12 SSW 1018,2 - 0,0
11.08.2018 20:00:00 24,8 17,5 11 6 25 13 SSW 1018,3 20 0,0
11.08.2018 19:00:00 25,4 16,0 19 10 27 15 SSW 1018,3 - 0,0
11.08.2018 18:00:00 27,8 16,1 13 7 23 12 S 1018,4 - 0,0
11.08.2018 17:00:00 29,4 14,0 14 8 24 13 S 1019,0 20 0,0
11.08.2018 16:00:00 28,9 13,9 14 7 24 13 S 1019,8 - 0,0
11.08.2018 15:00:00 28,8 14,6 14 8 23 12 S 1020,6 - 0,0
11.08.2018 14:00:00 28,9 11,9 13 7 22 12 SSE 1021,3 20 0,0
11.08.2018 13:00:00 27,1 12,7 11 6 24 13 SE 1021,9 - 0,0
11.08.2018 12:00:00 26,0 11,0 12 7 25 13 ESE 1022,3 - 0,0
11.08.2018 11:00:00 28,1 7,3 10 6 23 12 N 1022,3 20 0,0
11.08.2018 10:00:00 26,2 8,7 11 6 28 15 N 1022,5 - 0,0
11.08.2018 09:00:00 24,0 8,4 16 9 27 15 NNW 1022,5 - 0,0
11.08.2018 08:00:00 22,0 9,2 16 9 29 16 NW 1022,4 - 0,0
11.08.2018 07:00:00 22,1 8,2 17 9 32 18 NW 1022,2 - 0,0
11.08.2018 06:00:00 21,2 9,4 16 9 29 16 NNW 1022,0 - 0,0
11.08.2018 05:00:00 21,5 10,3 13 7 29 15 NW 1022,2 20 0,0
11.08.2018 04:00:00 22,2 10,0 16 9 31 17 NW 1022,6 - 0,0
11.08.2018 03:00:00 23,1 8,8 15 8 25 14 NNW 1022,7 - 0,0
11.08.2018 02:00:00 23,3 10,0 14 8 34 19 N 1022,8 - 0,0
11.08.2018 01:00:00 24,1 9,3 21 11 39 21 N 1022,4 - 0,0
11.08.2018 00:00:00 24,9 10,4 19 10 35 19 NW 1022,1 - 0,0
10.08.2018 23:00:00 25,8 11,5 14 8 23 12 WNW 1021,9 - 0,0
10.08.2018 22:00:00 25,4 15,1 10 6 26 14 WSW 1021,6 - 0,0
10.08.2018 21:00:00 25,6 19,9 18 10 32 18 SSW 1021,2 - 0,0
10.08.2018 20:00:00 25,5 19,4 16 9 36 19 SSW 1020,9 20 0,0
10.08.2018 19:00:00 26,3 16,8 16 9 31 17 SSW 1021,0 - 0,0
10.08.2018 18:00:00 26,9 17,9 18 10 30 16 S 1021,2 - 0,0
10.08.2018 17:00:00 26,9 17,4 19 11 33 18 S 1021,6 20 0,0
10.08.2018 16:00:00 27,3 16,6 21 12 32 17 S 1021,9 - 0,0
10.08.2018 15:00:00 27,7 15,0 16 9 30 16 S 1022,4 - 0,0
10.08.2018 14:00:00 28,3 13,8 15 8 25 14 S 1022,4 20 0,0
10.08.2018 13:00:00 27,2 12,8 9 5 19 11 SE 1022,8 - 0,0
10.08.2018 12:00:00 25,3 13,5 9 5 21 11 ESE 1022,9 - 0,0
10.08.2018 11:00:00 26,0 14,5 9 5 20 11 E 1023,1 20 0,0
10.08.2018 10:00:00 24,5 13,1 14 8 31 17 N 1023,1 - 0,0
10.08.2018 09:00:00 22,4 14,0 19 10 39 21 NNW 1022,8 - 0,0
10.08.2018 08:00:00 21,2 14,4 21 12 37 20 NNW 1022,7 20 0,0
10.08.2018 07:00:00 20,3 14,6 21 11 37 20 NW 1022,3 - 0,0
10.08.2018 06:00:00 20,5 14,6 20 11 43 23 NW 1021,9 - 0,0
10.08.2018 05:00:00 20,8 14,9 19 10 38 20 NNW 1021,7 - 0,0
10.08.2018 04:00:00 21,2 14,6 19 11 38 21 NW 1021,7 - 0,0
10.08.2018 03:00:00 21,4 15,0 17 9 36 19 NW 1021,4 - 0,0
10.08.2018 02:00:00 21,3 15,4 18 10 31 17 NW 1021,2 - 0,0
10.08.2018 01:00:00 21,7 15,5 14 8 31 17 NW 1021,3 - 0,0
10.08.2018 00:00:00 22,2 15,3 14 8 28 15 NW 1020,9 - 0,0
09.08.2018 23:00:00 22,5 15,3 12 7 25 13 NW 1020,9 - 0,0
09.08.2018 22:00:00 22,8 15,4 10 6 25 14 NW 1020,5 - 0,0
09.08.2018 21:00:00 22,9 15,5 10 5 26 14 NW 1019,6 - 0,0
09.08.2018 20:00:00 22,6 16,4 11 6 24 13 NW 1018,1 - 0,0
09.08.2018 19:00:00 22,6 19,9 6 4 26 14 N 1018,4 - 0,0
09.08.2018 18:00:00 22,5 19,5 10 5 18 10 N 1018,8 - 0,0
09.08.2018 17:00:00 23,2 20,3 6 3 31 17 NNW 1018,3 15 1,2
09.08.2018 16:00:00 24,0 19,1 12 7 52 28 NNW 1016,9 - 0,0
09.08.2018 15:00:00 27,7 17,2 22 12 44 24 NNW 1015,8 - 0,0
09.08.2018 14:00:00 28,0 17,2 23 13 48 26 W 1014,5 - 0,0
09.08.2018 13:00:00 30,1 17,5 17 9 52 28 W 1013,0 - 0,0
09.08.2018 12:00:00 29,1 19,7 22 12 48 26 SW 1013,2 - 0,0
09.08.2018 11:00:00 27,9 22,8 25 14 65 35 S 1012,4 - 0,0
09.08.2018 10:00:00 27,4 23,8 41 22 68 37 S 1011,7 - 0,0
09.08.2018 09:00:00 26,5 24,0 37 20 61 33 S 1011,8 - 0,0
09.08.2018 08:00:00 26,0 23,9 36 20 64 35 S 1011,0 8 0,0
09.08.2018 07:00:00 26,0 24,2 38 20 69 38 S 1010,5 10 0,0
09.08.2018 06:00:00 26,0 24,2 35 19 56 31 S 1011,2 10 0,0
09.08.2018 05:00:00 25,9 24,3 29 16 56 30 SSE 1011,4 10 0,0
09.08.2018 04:00:00 26,1 24,3 19 10 54 29 SE 1011,8 - 0,0
09.08.2018 03:00:00 25,9 23,9 30 16 53 28 SSE 1011,7 - 0,0
09.08.2018 02:00:00 26,3 24,0 19 10 44 24 SE 1012,2 - 0,0
09.08.2018 01:00:00 26,3 24,0 16 9 40 22 ESE 1013,0 - 0,0
09.08.2018 00:00:00 26,5 24,0 15 8 39 21 ESE 1013,3 - 0,0
08.08.2018 23:00:00 26,3 24,0 12 7 29 15 SE 1013,9 - 0,0

tt = Température de l'air
td = dewpoint
ff = Vitesse du vent
fx = gusts
dd = Direction du vent
ppp = reduced air pressure
vv = visibility
rr = Quantités de précipitations

stations d'obs. à proximité